Location: Pitton
(51.0667°N, 1.7000°W)
Time: 00:57:59
(UTC+00:00)

Resurs 01 Rocket - Pass Details

Date: 17 September 2019
Orbit: 635 x 644 km, 98.0° (Epoch: 20 October)

Event Time Altitude Azimuth Distance (km) Brightness Sun altitude
Exits shadow 21:57:12 11° 252° (WSW) 1,968 4.3 -30.7°
Maximum altitude 21:58:46 13° 273° (W) 1,858 4.4 -30.8°
Drops below altitude 10° 22:00:46 10° 300° (WNW) 2,045 5.0 -31.0°
Sets 22:04:15 0° 329° (NNW) 2,964 6.2 -31.3°
